Tracking 19280 objects as of 15-Nov-2018
HD Live streaming from Space Station
objects crossing your sky now

COSMOS 1761

Track COSMOS 1761 now!
COSMOS 1761 is classified as:


NORAD ID: 16849
Int'l Code: 1986-050A
Perigee: 6,840.5 km
Apogee: 33,575.1 km
Inclination: 69.7 °
Period: 718.7 minutes
Semi major axis: 26578 km
RCS: 12.1379 m2 (large)
Launch date: July 5, 1986
Source: Commonwealth of Independent States (former USSR) (CIS)
Launch site: PLESETSK MISSILE AND SPACE COMPLEX (PKMTR)
aabbcc
Your satellite tracking list
Your tracking list is empty




NASA's NSSDC Master Catalog

Two Line Element Set (TLE):
1 16849U 86050A   18319.10723087  .00000773  00000-0  00000+0 0  9993
2 16849  69.6530 182.5391 5029293  79.6786 271.0725  2.00354770237128
Source of the keplerian elements: AFSPC